Regional Weather Roundup
Issued by NWS

Home | Current Version | Previous Version | Text Only | Print | Product List | Glossary On
Versions: 1 2 3 4 5 6 7 8 9 10 11 12 13 14 15 16 17 18 19 20 21 22 23 24 25 26 27 28 29 30 31 32 33 34 35 36 37 38 39 40 41 42 43 44 45 46 47 48 49 50
000
ASUS44 KMEG 250010
RWRTN
TENNESSEE HOURLY STATE WEATHER ROUNDUP
NATIONAL WEATHER SERVICE MEMPHIS TN
700 PM CDT SUN JUL 24 2016

TNZ002-004-019-021-049-052-054-088>092-250100-
WEST TENNESSEE

CITY           SKY/WX    TMP DP  RH WIND       PRES   REMARKS
MEMPHIS INTL   CLOUDY    88  74  63 SW3       29.96R HX  96
NWS MEMPHIS      N/A     90 N/A N/A MISG        N/A
JACKSON        CLOUDY    89  77  67 CALM      29.97R HX 101
DYERSBURG      SUNNY     90  75  62 MISG      29.95S HX 100
UNION CITY     MOSUNNY   91  77  62 SE3       29.94S HX 105
PARIS          SUNNY     91  75  59 CALM      29.98R HX 102
LEXINGTON      SUNNY     79  75  89 CALM      29.98R
$$

TNZ008-025-027-028-033-062-065-066-250100-
NORTH MIDDLE TENNESSEE

CITY           SKY/WX    TMP DP  RH WIND       PRES   REMARKS
NASHVILLE      PTSUNNY   91  73  55 NE5       29.98R HX  99
CLARKSVILLE    CLOUDY    90  75  61 SE5       29.96S HX 100
SMYRNA         PTCLDY    91  74  57 CALM      29.99R HX 100
COOKEVILLE     PTCLDY    93  79  62 CALM      30.01S HX 110
CROSSVILLE     CLOUDY    81  74  79 CALM      30.09R
$$

TNZ061-075-076-078-094-096-097-250100-
SOUTH MIDDLE TENNESSEE

CITY           SKY/WX    TMP DP  RH WIND       PRES   REMARKS
FAYETTEVILLE   CLEAR     81  72  74 E3        30.01S
TULLAHOMA      CLEAR     84  70  61 S5        30.03S
WINCHESTER     CLEAR     79  72  78 SE6       30.03R
MCMINNVILLE    CLEAR     88  79  74 CALM      30.02S HX 102
COLUMBIA       MOSUNNY   90  81  74 W7        29.98R HX 108
SHELBYVILLE    CLEAR     88  77  70 S6        30.01R HX 100
$$

TNZ017-018-042-046-047-250100-
NORTHEAST TENNESSEE

CITY           SKY/WX    TMP DP  RH WIND       PRES   REMARKS
TRI CITIES     MOCLDY    85  69  58 NW14      30.05R
ELIZABETHTON   MOCLDY    82  70  65 NE3       30.05S
$$

TNZ012-013-036-069-073-074-250100-
CENTRAL EAST TENNESSEE

CITY           SKY/WX    TMP DP  RH WIND       PRES   REMARKS
KNOXVILLE      CLOUDY    91  68  46 W7        29.99S HX  95
OAK RIDGE      CLEAR     91  69  48 CALM      30.02R HX  96
GATLINBURG       N/A     88  70  55 CALM      30.00S HX  92
MORRISTOWN     CLEAR     90  72  55 SW5       30.02R HX  96
$$

TNZ083-085-099-250100-
SOUTHEAST TENNESSEE

CITY           SKY/WX    TMP DP  RH WIND       PRES   REMARKS
CHATTANOOGA    MOCLDY    84  73  69 N3        30.01R HX  90
$$

SKY/WX REPORTED AS FAIR MEANS FEW OR NO CLOUDS BELOW
12 THOUSAND FEET.





USA.gov is the U.S. government's official web portal to all federal, state and local government web resources and services.